CST,Max TemperatureF,Mean TemperatureF,Min TemperatureF,Max Dew PointF,MeanDew PointF,Min DewpointF,Max Humidity, Mean Humidity, Min Humidity, Max Sea Level PressureIn, Mean Sea Level PressureIn, Min Sea Level PressureIn, Max VisibilityMiles, Mean VisibilityMiles, Min VisibilityMiles, Max Wind SpeedMPH, Mean Wind SpeedMPH, Max Gust SpeedMPH,PrecipitationIn, CloudCover, Events, WindDirDegrees
2011-10-1,84,80,75,77,76,73,94,86,74,29.93,29.87,29.83,6,6,6,12,4,,0.00,6,Thunderstorm,7
2011-10-2,80,76,73,77,74,72,100,88,74,29.98,29.92,29.86,6,6,2,8,4,,0.00,6,Rain,62
2011-10-3,80,78,75,77,76,75,100,92,84,30.00,29.94,29.90,6,6,4,7,3,,0.00,6,Rain,41
2011-10-4,84,80,75,77,76,73,100,85,70,30.02,29.95,29.88,6,6,5,15,6,,0.00,5,Rain,32
2011-10-5,86,82,78,79,77,75,94,84,70,29.96,29.91,29.84,6,6,6,10,5,,0.00,4,,37
2011-10-6,87,84,82,79,77,75,89,78,70,29.93,29.88,29.83,6,6,6,9,6,,0.00,4,,79
2011-10-7,86,80,75,79,76,73,100,86,74,29.93,29.88,29.83,6,6,6,9,5,,0.00,6,,29
2011-10-8,87,81,75,79,76,73,100,81,62,29.90,29.84,29.77,6,6,6,8,4,,0.00,4,,14
2011-10-9,89,82,75,79,77,73,100,82,59,29.87,29.80,29.73,6,6,6,8,3,,0.00,2,,66
2011-10-10,91,84,77,79,77,75,100,78,59,29.83,29.79,29.74,6,6,6,12,2,,0.00,2,,108
2011-10-11,89,84,78,79,77,75,94,77,62,29.85,29.80,29.75,6,6,6,8,3,,0.00,2,,58
2011-10-12,89,84,80,79,79,77,94,80,70,29.85,29.78,29.71,6,6,6,12,6,,0.00,6,Rain,121
2011-10-13,84,81,77,81,78,77,100,88,79,29.80,29.74,29.67,6,6,3,12,4,23,0.00,6,Rain-Thunderstorm,324
2011-10-14,80,78,75,77,76,75,100,95,84,29.80,29.74,29.68,6,5,1,13,4,,0.00,6,Rain-Thunderstorm,357
2011-10-15,84,80,75,77,77,75,100,92,79,29.77,29.72,29.67,6,6,5,10,4,,0.00,6,Rain,328
2011-10-16,86,80,75,79,76,75,100,86,74,29.78,29.72,29.66,6,6,4,8,5,,0.00,6,Rain,245
2011-10-17,86,82,77,81,77,75,94,86,74,29.78,29.72,29.67,6,6,2,10,6,,0.00,6,Rain-Thunderstorm,257
2011-10-18,87,82,77,79,77,75,100,85,70,29.82,29.75,29.68,6,6,5,14,6,,0.00,6,Rain,264
2011-10-19,82,80,77,75,74,73,89,82,74,30.04,29.94,29.89,6,6,6,10,6,,0.00,6,Rain,268
2011-10-20,82,76,69,70,66,61,94,68,48,30.14,30.07,30.02,6,6,6,12,7,,0.00,6,,351
2011-10-21,82,75,68,68,65,63,94,69,51,30.12,30.05,29.98,6,6,6,10,6,,0.00,4,,335
2011-10-22,82,76,69,70,65,61,100,68,48,30.03,29.97,29.91,6,6,6,12,8,,0.00,4,,341
2011-10-23,84,75,66,66,64,61,94,66,48,30.02,29.96,29.92,6,6,6,10,7,,0.00,2,,353
2011-10-24,84,75,66,68,63,61,94,65,45,30.09,30.03,29.98,6,6,6,13,7,,0.00,4,,326
2011-10-25,86,78,69,79,71,63,89,76,51,30.07,29.99,29.91,6,6,6,15,9,,0.00,5,,314
2011-10-26,80,76,71,73,71,68,94,86,74,29.95,29.87,29.79,6,6,6,12,8,,0.00,6,Rain,270
2011-10-27,87,79,71,75,72,70,94,79,58,29.84,29.79,29.72,6,6,6,10,7,,0.00,5,,264
2011-10-28,91,81,71,77,74,72,100,76,55,29.92,29.85,29.79,6,6,6,12,4,,0.00,3,,296
2011-10-29,87,81,75,75,72,70,94,74,55,29.99,29.93,29.87,6,6,6,12,7,,0.00,5,,314
2011-10-30,86,78,71,72,70,68,94,74,55,30.01,29.95,29.90,6,6,5,13,9,,0.00,5,Rain,306
2011-10-31,80,76,73,73,70,68,89,80,69,30.01,29.96,29.92,6,6,6,13,9,,0.00,6,Rain,298